Location: Minneapolis
(45.0000°N, 93.0000°W)
Time: 23:33:09
(UTC-06:00)

OTV 5 (USA 277) - Visible Passes

Search period start: 20 February 2018 00:00
Search period end: 02 March 2018 00:00
Orbit: 404 x 417 km, 43.0° (Epoch: 07 September)

Date Brightness Start Highest point End Pass type
(mag) Time Alt. Az. Time Alt. Az. Time Alt. Az.
20 Feb ? 05:57:23 10° SSW 05:59:34 17° SSE 06:01:47 10° ESE visible
21 Feb ? 05:07:29 10° S 05:08:42 12° SSE 05:10:01 10° ESE visible
22 Feb ? 05:51:51 12° SW 05:54:28 30° SSE 05:57:24 10° E visible
23 Feb ? 05:03:20 23° SSE 05:03:31 23° SSE 05:06:12 10° E visible
24 Feb ? 04:14:44 10° ESE 04:14:44 10° ESE 04:14:50 10° ESE visible
24 Feb ? 05:47:30 20° SW 05:49:28 47° SSE 05:52:40 10° E visible
25 Feb ? 04:58:49 37° SSE 04:58:49 37° SSE 05:01:35 10° E visible
26 Feb ? 04:10:07 12° E 04:10:07 12° E 04:10:27 10° E visible
26 Feb ? 05:42:52 25° WSW 05:44:34 60° S 05:47:49 10° E visible
27 Feb ? 04:54:08 46° SE 04:54:08 46° SE 04:56:46 10° E visible
28 Feb ? 04:05:23 12° E 04:05:23 12° E 04:05:43 10° E visible
28 Feb ? 05:38:08 27° WSW 05:39:40 59° S 05:42:55 10° ESE visible
01 Mar ? 04:49:23 45° SE 04:49:23 45° SE 04:51:54 10° E visible
